Погода в Львове

Погода в Львове : погода сейчас, прогноз погоды и архив. Всё, что Вы хотите узнать о погоде в Львове!

Поиск расширенной информации на нашем сайте:

Другие новости

Новости СМИ2

Главная страница сайта

Новости сайта

03.07.2017

Напоминаем, что на нашем специализированном сайте Метеоцентр.Азия вы можете получить высокодетализированные автоматические прогнозы погоды по пунктам России, СНГ и мира в авиационном формате (включающие направление и скорость ветра, видимость, явления погоды, количество и форму облачности, нижнюю и верхнюю границу облачности).

Рекомендуем: Заливка фундамента в Калуге облицовка камнем фундамента дома Калуга.

Погода в Львове - сегодня

Время (UTC), дата Ветер
(°,м/с) 
Видим.   Явления Облачность Т
(°С)
Тd
(°С)
f(%) Тe
(°С)
Pmin
(гПа)
dP
(гПа)
Po
(мм)
O2
(г/м3)
Тmin Tmax R s Состояние
почвы
18 14.10.17 280 (З) 10 км    10/10 630 м 
[Sc]
+13.4 +8.6 73 +13  1023.7  739  282    +14.6       
21 14.10.17 280 (З) 10 км  в посл. час ливневой дождь  10/10 500 м кучево-дожд. 
[Cb calv]
+13.1 +9.8 80 +13  1024.2  0.4  739  282           
00 15.10.17 280 (З) 10 км  {ливн. осадки}  10/10 420 м 
[Ns]
+13.5 +10.3 81 +15  1024.5  0.3  740  282           
03 15.10.17 280 (З) 2900 м  дымка  10/10 120 м 
[St]
+12.6 +11.3 92 +15  1024.5  -0.1  740  283           
06 15.10.17 270 (З) 8000 м  в посл. час морось  8/5 600 м средняя 
[Sc|Ac trans]
+13.3 +11.4 88 +16  1024.2  -0.2  739  282  +12.6    0.0     
09 15.10.17 280 (З) 5000 м  дымка  10/10 210 м 
[St]
+14.3 +12.1 87 +18  1025.2  1.1  740  281           
12 15.10.17 290 (З) 10 км    8/8 720 м 
[Sc]
+16.8 +12.1 74 +20  1024.2  -0.6  740  278           
15 15.10.17 300 (СЗ) 10 км    10/10 900 м 
[Sc]
+16.3 +11.3 72 +19  1024.5  0.3  740  279           
18 15.10.17 290 (З) 10 км    10/10 1200 м 
[Sc]
+15.2 +11.3 78 +18  1026.1  1.3  741  281    +17.7       
21 15.10.17 320 (СЗ) 10 км    10/10 1200 м 
[Sc]
+14.6 +11.1 80 +18  1026.9  0.7  741  281           
00 16.10.17 тихо ()   10 км    3/0 средняя 
[Ac trans]
+11.6 +10 90 +13  1027.8  0.4  742  285           
03 16.10.17 тихо ()   0100 м  туман  ?/?  
+7 +6.1 94 +7  1028.4  742  290           
06 16.10.17 тихо ()   0200 м  туман  ?/?  
+7.9 +7.5 97 +8  1028.1  -0.2  742  289  +6.3         
09 16.10.17 240 (ЮЗ) 10 км  {туман}  ясно 
+16.7 +11.6 72 +22  1026.4  -0.4  741  279           
12 16.10.17 250 (З) 10 км  {туман}  ясно 
+21.2 +10.4 50 +23  1024.4  -1.4  740  275           
15 16.10.17 270 (З) 10 км    ясно 
+20.9 +9.8 49 +22  1023.5  -0.9  740  275           
18 16.10.17 тихо ()   10 км    ясно 
+14.5 +9.9 74 +16  1024.3  740  281    +22.3       
21 16.10.17 280 (З) 10 км    ясно 
+13.5 +9.4 76 +15  1024.9  0.5  740  282           
00 17.10.17 тихо ()   10 км  дымка  ясно 
+9 +7.6 91 +9  1025.9  0.3  740  287           
03 17.10.17 тихо ()   1200 м  дымка  ясно 
+6.5 +5.4 93 +7  1026.4  0.1  740  290           
06 17.10.17 тихо ()   9000 м  в посл. час туман  ясно 
+9.2 +8.4 95 +9  1026.4  0.4  741  287  +5.4         
09 17.10.17 280 (З) 10 км    ясно 
+17.4 +12 71 +22  1025.7  0.4  741  278           
12 17.10.17 290 (З) 10 км    ясно 
+20.7 +12.2 58 +25  1024.1  -1.1  740  275           
15 17.10.17 300 (СЗ) 10 км    ясно 
+19.8 +11.1 57 +24  1023.2  -1  739  276           
18 17.10.17 тихо ()   1800 м  дымка  ясно 
+10.3 +8.5 89 +10  1024.1  -0.4  739  285    +21.4       
Время (UTC), дата Ветер
(°,м/с) 
Видим.   Явления Облачность Т
(°С)
Тd
(°С)
f(%) Тe
(°С)
Pmin
(гПа)
dP
(гПа)
Po
(мм)
O2
(г/м3)
Тmin Tmax R s Состояние
почвы

Для получения пояснительной информации подведите курсор к названию столбца.

ПОГОДА в Львове - архив

Всё, что Вы хотите узнать о погоде в Львове - удобно и подробно!

Выберите нужную дату (начиная с 1 января 2015* года) и нажмите кнопку "Найти".
Будут отображены архивные сводки погоды по пункту Львов, начиная с указанной даты.


Отображать данные в формате CSV (для использования в таблицах Excel)


Внимание! Наш архив погоды предназначен исключительно для личного некоммерческого использования в познавательных целях. Если Вам необходимы официальные справки о состоянии погоды (для производственных, юридических, коммерческих и т.п. целей), обращайтесь в органы Росгидромета.

*Примечание: данная дата относится к архиву по метеостанциям СССР (Россия, СНГ, Балтия).
Архив по метеостанциям Зарубежной Европы и Азии (кроме Китая) хранится 10 дней, по другим регионам земного шара (Китай, Африка, Америка, Австралия, Океания) - 1 день.

Львов - район местоположения метеостанции


Название, широта, долгота, высота метеостанции:
Львов 49.8°ш. 23.9°д. 323 м над ур. моря [Украина]

Дополнительная информация

В oтличие oт бoльшинства пoгoдных сайтoв мы публикуем пoдрoбную метеoинфoрмацию в детальнoм прoфессиoнальнoм фoрмате.

Характеристики температуры и влажнoсти вoздуха измеряются на высoте 2 м в тени вдали oт зданий и деревьев.
Скoрoсть ветра измеряется на высoте 10 м (на урoвне рoста челoвека скoрoсть ветра ниже в 1.5-2 раза). Если метеoстанция нахoдится в гoрoде или в лесу, тo скoрoсть ветра занижена на 2-4 м/с пo сравнению с oткрытым местoм. Скoрoсть ветра над акватoриями крупных рек и oзёр, а также на вершинах хoлмoв на 2-5 м/с выше, чем в oбычных услoвиях.
Атмoсфернoе давление в разных тoчках местнoсти мoжет значительнo oтличаться oт давления на метеoстанции, в зависимoсти oт услoвий рельефа (при пoдъёме на 10 м давление пoнижается примернo на 1 мм рт.ст.).